When you browse on this site, cookies collect data to enhance your experience and personalize the content and advertising you see.
Visit our Privacy Policy to learn more. By continuing to use the site, you agree to this use of cookies and data.

Hourly Weather Karlsruhe

Today, 6 July, Monday

Time Temperature Precipitation Wind Pressure Humidity
00:00 +21°C° 0.1 mm 3 mps 751 mmHg 89%
01:00 +21°C° 0.1 mm 4 mps 750 mmHg 90%
02:00 +20°C° 0.3 mm 4 mps 750 mmHg 89%
03:00 +19°C° 0.3 mm 4 mps 750 mmHg 88%
04:00 +19°C° 0.3 mm 4 mps 750 mmHg 88%
05:00 +17°C° 0.1 mm 4 mps 751 mmHg 85%
06:00 +15°C° 0.1 mm 4 mps 751 mmHg 81%
07:00 +14°C° 0.1 mm 4 mps 751 mmHg 78%
08:00 +15°C° 0 mm 4 mps 752 mmHg 71%
09:00 +16°C° 0 mm 5 mps 752 mmHg 64%
10:00 +19°C° 0 mm 5 mps 753 mmHg 56%
11:00 +19°C° 0 mm 5 mps 753 mmHg 54%
12:00 +20°C° 0 mm 6 mps 753 mmHg 51%
13:00 +21°C° 0 mm 6 mps 753 mmHg 49%
14:00 +20°C° 0 mm 6 mps 753 mmHg 50%
15:00 +20°C° 0 mm 6 mps 753 mmHg 50%
16:00 +20°C° 0 mm 5 mps 753 mmHg 51%
17:00 +20°C° 0 mm 5 mps 753 mmHg 56%
18:00 +19°C° 0 mm 4 mps 754 mmHg 60%
19:00 +18°C° 0 mm 4 mps 754 mmHg 65%
20:00 +17°C° 0.1 mm 3 mps 755 mmHg 71%
21:00 +16°C° 0.1 mm 3 mps 755 mmHg 78%
22:00 +14°C° 0.1 mm 2 mps 756 mmHg 85%
23:00 +14°C° 0 mm 2 mps 756 mmHg 85%

Tomorrow, 7 July, Tuesday

Time Temperature Precipitation Wind Pressure Humidity
00:00 +13°C° 0 mm 1 mps 756 mmHg 86%
01:00 +13°C° 0 mm 1 mps 756 mmHg 87%
02:00 +12°C° 0 mm 1 mps 756 mmHg 87%
03:00 +12°C° 0 mm 1 mps 756 mmHg 88%
04:00 +11°C° 0 mm 1 mps 756 mmHg 88%
05:00 +12°C° 0 mm 0 mps 756 mmHg 84%
06:00 +13°C° 0 mm 0 mps 756 mmHg 81%
07:00 +14°C° 0 mm 0 mps 756 mmHg 77%
08:00 +16°C° 0 mm 0 mps 755 mmHg 68%
09:00 +18°C° 0 mm 0 mps 755 mmHg 59%
10:00 +22°C° 0 mm 1 mps 755 mmHg 50%
11:00 +23°C° 0 mm 1 mps 755 mmHg 47%
12:00 +24°C° 0 mm 1 mps 754 mmHg 43%
13:00 +24°C° 0 mm 1 mps 754 mmHg 39%
14:00 +25°C° 0 mm 1 mps 754 mmHg 38%
15:00 +25°C° 0 mm 1 mps 753 mmHg 38%
16:00 +25°C° 0 mm 1 mps 753 mmHg 37%
17:00 +24°C° 0 mm 1 mps 753 mmHg 43%
18:00 +24°C° 0 mm 1 mps 753 mmHg 49%
19:00 +23°C° 0 mm 1 mps 753 mmHg 55%
20:00 +21°C° 0 mm 1 mps 753 mmHg 59%
21:00 +19°C° 0 mm 1 mps 753 mmHg 62%
22:00 +16°C° 0 mm 1 mps 753 mmHg 65%
23:00 +16°C° 0 mm 1 mps 753 mmHg 69%

Day after tomorrow, 8 July, Wednesday

Time Temperature Precipitation Wind Pressure Humidity
00:00 +15°C° 0 mm 1 mps 753 mmHg 72%
01:00 +15°C° 0 mm 1 mps 753 mmHg 75%
02:00 +14°C° 0 mm 2 mps 753 mmHg 79%
03:00 +14°C° 0 mm 2 mps 753 mmHg 82%
04:00 +13°C° 0 mm 2 mps 753 mmHg 85%
05:00 +15°C° 0 mm 2 mps 753 mmHg 81%
06:00 +16°C° 0 mm 2 mps 753 mmHg 77%
07:00 +17°C° 0 mm 3 mps 753 mmHg 73%
08:00 +19°C° 0 mm 3 mps 753 mmHg 67%
09:00 +20°C° 0 mm 4 mps 753 mmHg 61%
10:00 +22°C° 0 mm 4 mps 753 mmHg 55%
11:00 +23°C° 0 mm 4 mps 753 mmHg 53%
12:00 +25°C° 0 mm 4 mps 753 mmHg 51%
13:00 +26°C° 0 mm 5 mps 753 mmHg 49%
14:00 +26°C° 0 mm 5 mps 753 mmHg 51%
15:00 +26°C° 0 mm 5 mps 753 mmHg 53%
16:00 +26°C° 0 mm 4 mps 753 mmHg 55%
17:00 +25°C° 0 mm 4 mps 753 mmHg 61%
18:00 +22°C° 0 mm 3 mps 753 mmHg 68%
19:00 +21°C° 0 mm 2 mps 753 mmHg 74%
20:00 +20°C° 0 mm 2 mps 754 mmHg 77%
21:00 +20°C° 0 mm 1 mps 754 mmHg 80%
22:00 +19°C° 0 mm 1 mps 754 mmHg 84%
23:00 +19°C° 0 mm 1 mps 754 mmHg 84%

9 July, Thursday

Time Temperature Precipitation Wind Pressure Humidity
00:00 +19°C° 0 mm 1 mps 754 mmHg 85%
01:00 +18°C° 0 mm 1 mps 754 mmHg 85%
02:00 +18°C° 0 mm 1 mps 754 mmHg 86%
03:00 +18°C° 0 mm 1 mps 754 mmHg 88%
04:00 +18°C° 0 mm 1 mps 754 mmHg 89%
05:00 +18°C° 0 mm 1 mps 754 mmHg 87%
06:00 +19°C° 0 mm 1 mps 754 mmHg 84%
07:00 +20°C° 0 mm 1 mps 754 mmHg 81%
08:00 +22°C° 0 mm 1 mps 754 mmHg 75%
09:00 +23°C° 0 mm 2 mps 754 mmHg 69%
10:00 +25°C° 0 mm 2 mps 754 mmHg 63%
11:00 +26°C° 0 mm 2 mps 753 mmHg 59%
12:00 +27°C° 0 mm 2 mps 753 mmHg 55%
13:00 +28°C° 0 mm 2 mps 753 mmHg 51%
14:00 +28°C° 0 mm 2 mps 752 mmHg 49%
15:00 +29°C° 0 mm 2 mps 752 mmHg 48%
16:00 +29°C° 0 mm 2 mps 752 mmHg 46%
17:00 +28°C° 0 mm 2 mps 751 mmHg 51%
18:00 +28°C° 0 mm 1 mps 751 mmHg 56%
19:00 +27°C° 0 mm 1 mps 751 mmHg 61%
20:00 +25°C° 0 mm 1 mps 751 mmHg 65%
21:00 +23°C° 0 mm 1 mps 751 mmHg 69%
22:00 +22°C° 0 mm 1 mps 751 mmHg 73%
23:00 +21°C° 0 mm 1 mps 751 mmHg 74%

10 July, Friday

Time Temperature Precipitation Wind Pressure Humidity
00:00 +21°C° 0 mm 1 mps 751 mmHg 76%
01:00 +20°C° 0 mm 1 mps 750 mmHg 78%
02:00 +20°C° 0 mm 1 mps 750 mmHg 80%
03:00 +20°C° 0 mm 1 mps 750 mmHg 82%
04:00 +19°C° 0 mm 1 mps 749 mmHg 84%
05:00 +20°C° 0 mm 1 mps 749 mmHg 81%
06:00 +22°C° 0 mm 1 mps 749 mmHg 78%
07:00 +23°C° 0 mm 2 mps 749 mmHg 75%
08:00 +24°C° 0 mm 2 mps 749 mmHg 70%
09:00 +26°C° 0 mm 3 mps 748 mmHg 65%
10:00 +27°C° 0 mm 3 mps 748 mmHg 60%
11:00 +28°C° 0.1 mm 3 mps 748 mmHg 58%
12:00 +28°C° 0.1 mm 4 mps 748 mmHg 57%
13:00 +29°C° 0.1 mm 4 mps 748 mmHg 56%
14:00 +27°C° 1.3 mm 5 mps 748 mmHg 63%
15:00 +26°C° 1.3 mm 5 mps 748 mmHg 70%
16:00 +25°C° 1.3 mm 5 mps 748 mmHg 78%
17:00 +23°C° 0.4 mm 5 mps 749 mmHg 77%
18:00 +22°C° 0.4 mm 4 mps 749 mmHg 76%
19:00 +21°C° 0.4 mm 4 mps 750 mmHg 75%
20:00 +20°C° 0 mm 3 mps 751 mmHg 75%
21:00 +18°C° 0 mm 3 mps 751 mmHg 75%
22:00 +16°C° 0 mm 2 mps 752 mmHg 75%
23:00 +15°C° 0 mm 2 mps 753 mmHg 76%

11 July, Saturday

Time Temperature Precipitation Wind Pressure Humidity
00:00 +14°C° 0 mm 1 mps 753 mmHg 78%
01:00 +13°C° 0 mm 1 mps 754 mmHg 80%
02:00 +13°C° 0 mm 1 mps 754 mmHg 81%
03:00 +12°C° 0 mm 1 mps 755 mmHg 83%
04:00 +12°C° 0 mm 1 mps 755 mmHg 85%
05:00 +13°C° 0 mm 1 mps 755 mmHg 81%
06:00 +14°C° 0 mm 1 mps 755 mmHg 77%
07:00 +15°C° 0 mm 1 mps 756 mmHg 74%
08:00 +18°C° 0 mm 1 mps 756 mmHg 65%
09:00 +19°C° 0 mm 1 mps 756 mmHg 57%
10:00 +20°C° 0 mm 2 mps 756 mmHg 49%
11:00 +21°C° 0 mm 2 mps 756 mmHg 45%
12:00 +23°C° 0 mm 2 mps 756 mmHg 41%
13:00 +24°C° 0 mm 2 mps 756 mmHg 38%
14:00 +24°C° 0 mm 2 mps 756 mmHg 37%
15:00 +24°C° 0 mm 2 mps 756 mmHg 35%
16:00 +24°C° 0 mm 2 mps 756 mmHg 34%
17:00 +23°C° 0 mm 2 mps 756 mmHg 40%
18:00 +21°C° 0 mm 2 mps 756 mmHg 45%
19:00 +21°C° 0 mm 2 mps 756 mmHg 50%
20:00 +19°C° 0 mm 2 mps 756 mmHg 53%
21:00 +17°C° 0 mm 2 mps 757 mmHg 56%
22:00 +16°C° 0 mm 2 mps 757 mmHg 58%
23:00 +15°C° 0 mm 2 mps 757 mmHg 61%
Show more